Flag for United Kingdom Weather past 2 weeks in Winchester, England, United Kingdom

Now
52 °F

Passing clouds.


Feels Like: 51 °F
Forecast: 40 / 53 °F
Wind: 5 mph from South

Location: Middle Wallop

Current Time: Apr 25, 2015 at 11:15:07 PM

Latest Report: Apr 25, 2015 at 9:50 PM


Visibility: N/A

Pressure: 29.71 "Hg

Humidity: 94%

Dew point: 50 °F

Location of WinchesterLocation

Historic Weather in Winchester — Graph

°F

Winchester temperature yesterday

Maximum temperature yesterday: 61 °F (at 1:50 PM)
Minimum temperature yesterday: 36 °F (at 4:50 AM)
Average temperature yesterday: 50 °F

Past Weeks' High & Low Weather Summary

 TemperatureHumidityPressure
High73 °F (Apr 15, 2:50 PM)100% (Apr 12, 7:50 AM)30.54 "Hg (Apr 12, 7:50 AM)
Low34 °F (Apr 12, 4:50 AM)26% (Apr 11, 4:50 PM)29.68 "Hg (Apr 25, 4:50 AM)
Average52 °F67%30.17 "Hg
* Reported Apr 10 8:50 PM — Apr 25 8:50 PM, Winchester, Weather by CustomWeather, © 2015

Note: Actual official high and low records may vary slightly from our data, if they occured in-between our weather recording intervals... More about our weather records

Advertising

Winchester weather history for previous 24 hours

 ConditionsComfort  
Time TempWeatherWind HumidityBarometerVisibility
8:50 PM
Sat, Apr 25
52 °FBroken clouds.5 mph94%29.71 "Hg5 mi
7:50 PM54 °FPartly sunny.7 mph88%29.68 "HgN/A
6:50 PM54 °FPartly sunny.8 mph88%29.68 "HgN/A
5:50 PM55 °FPartly sunny.9 mph82%29.68 "HgN/A
4:50 PM57 °FPartly sunny.12 mph67%29.68 "HgN/A
3:50 PM59 °FPartly sunny.12 mph59%29.68 "HgN/A
2:50 PM61 °FScattered clouds.13 mph55%29.68 "HgN/A
1:50 PM61 °FPartly sunny.12 mph55%29.68 "HgN/A
12:50 PM59 °FBroken clouds.13 mph59%29.68 "HgN/A
11:50 AM57 °FPartly sunny.13 mph67%29.71 "HgN/A
10:50 AM55 °FPartly sunny.10 mph72%29.71 "HgN/A
9:50 AM55 °FBroken clouds.8 mph88%29.71 "HgN/A
8:50 AM54 °FBroken clouds.8 mph88%29.71 "HgN/A
7:50 AM52 °FPartly sunny.5 mph94%29.68 "HgN/A
6:50 AM52 °FLow clouds.7 mph94%29.68 "HgN/A
5:50 AM50 °FPassing clouds.8 mph100%29.68 "Hg2 mi
4:50 AM52 °FLow clouds.8 mph94%29.68 "Hg6 mi
3:50 AM50 °FLow clouds.8 mph100%29.71 "Hg5 mi
2:50 AM52 °FLow clouds.8 mph94%29.71 "HgN/A
1:50 AM52 °FLow clouds.8 mph94%29.74 "Hg4 mi
11:50 PM
Fri, Apr 24
52 °FLow clouds.9 mph94%29.77 "HgN/A
Weather by CustomWeather, © 2015

See weather overviewHow to use our weather pages